Location: Bailleul
(50.3375°N, 2.8513°E)
Time: 01:28:52
(UTC+00:00)

Cosmos 2016 Rocket - Pass Details

Date: 24 October 2021
Orbit: 947 x 1000 km, 83.0° (Epoch: 08 December)

Event Time Altitude Azimuth Distance (km) Brightness Sun altitude
Exits shadow 21:08:36 26° 325° (NW) 1,797 5.8 -41.7°
Drops below altitude 10° 21:12:01 10° 354° (N) 2,693 6.7 -42.1°
Sets 21:14:50 0° 5° (N) 3,638 7.4 -42.5°
